Location: Newark
(34.1333°N, 7.9667°W)
Time: 07:10:08
(UTC+00:00)

NANOSAT C BR1 - Pass Details

Date: 16 June 2023
Orbit: 569 x 581 km, 98.0° (Epoch: 28 September)

Event Time Altitude Azimuth Distance (km) Brightness Sun altitude
Rises 03:05:25 0° 16° (NNE) 2,834 ? -22.0°
Reaches altitude 10° 03:07:37 10° 21° (NNE) 1,927 ? -21.7°
Maximum altitude 03:11:45 59° 101° (E) 685 ? -21.2°
Enters shadow 03:12:58 41° 158° (SSE) 866 ? -21.0°
